Погода в Ловийсе

Финляндия     60°27′26″N   26°13′34″E
темп.,
°C
ветер,
м/с
пор.,
м/с
влажн.,
%
обл.,
%
осадки,
мм/ч
давл.,
гПа
погр.,
м
27 сентября, пн
пн2700:00+7ссв1183100 0.0 102617
03:00+7ссв118577 0.0 102816
06:00+6ссв11885 0.0 102918
09:00+8всв12805 0.0 103077
12:00+12юв22625 0.0 1031492
15:00+12ююв22605 0.0 1031620
18:00+10ююв12765 0.0 103156
21:00+8в11815 0.0 103112
28 сентября, вт
вт2800:00+7в22855 0.0 103229
03:00+7в22935 0.0 103218
06:00+8вюв23945 0.0 103249
09:00+9вюв25895 0.0 1033191
12:00+12юв35705 0.0 1034542
15:00+12юв34725 0.0 1034526
18:00+10вюв25825 0.0 1034195
21:00+8в22915 0.0 103441
29 сентября, ср
ср2900:00+8в229252 0.0 103523
03:00+8юв2289100 0.0 103529
06:00+9ююв2587100 0.0 1035139
09:00+10юв2585100 0.0 1035201
12:00+11ююв3571100 0.0 1035464
15:00+11ююв3468100 0.0 1035437
18:00+10юв2474100 0.0 1034168
21:00+10юв2473100 0.1 1034109
30 сентября, чт
чт3000:00+10ююв2775100 0.0 1034176
03:00+10ююв3774100 0.0 1034188
06:00+9ююв48765 0.0 1033268
09:00+9ююв37825 0.0 1033515
12:00+10ююв58725 0.0 1033717
15:00+10юв57685 0.0 1032746
18:00+9юв410725 0.0 1030564
21:00+9ююв49765 0.0 1030301
1 октября, пт
пт100:00+9ююв410795 0.0 1029316
03:00+8ююв488611 0.0 1028270
06:00+8ю4884100 0.0 1027379
09:00+8ю3692100 0.1 1027381
12:00+9ю3488100 0.1 1028384
15:00+10ю3589100 0.1 1027400
18:00+9ю358981 0.0 1027462
21:00+9ю3792100 0.0 1026299